Regional Weather Roundup
Issued by NWS

Home | Current Version | Previous Version | Graphics & Text | Print | Product List | Glossary On
Versions: 1 2 3 4 5 6 7 8 9 10 11 12 13 14 15 16 17 18 19 20 21 22 23 24 25 26 27 28 29 30 31 32 33 34 35 36 37 38 39 40 41 42 43 44 45 46 47 48 49 50
000
ASUS45 KSLC 031010
RWRUT

UTAH REGIONAL WEATHER ROUNDUP
NATIONAL WEATHER SERVICE SALT LAKE CITY UT
400 AM MDT SUN MAY 03 2015

UTZ001>011-023>025-031100-

NORTHERN UTAH

CITY           SKY/WX    TMP DP  RH WIND       PRES   REMARKS
BRIGHAM CITY   CLOUDY    61  39  43 S5        29.88R
HILL AFB       CLOUDY    60  42  51 SE6       29.90R
LOGAN          MOCLDY    54  43  66 E6        29.88R
OGDEN          CLOUDY    59  40  49 S3        29.88R
PROVO AIRPORT  PTCLDY    55  37  50 CALM      29.91R
SALT LAKE CITY CLOUDY    60  42  51 E5        29.87R
VERNAL         PTCLDY    52  32  46 NW9       29.95S
WENDOVER       CLOUDY    63  34  34 W5        29.88S
HEBER CITY     MOCLDY    46  32  57 SE3       29.96S
WEST JORDAN    PTCLDY    55  37  50 SW10      29.90R

$$

UTZ012>022-026-027-031100-

SOUTHERN/CENTRAL UTAH

CITY           SKY/WX    TMP DP  RH WIND       PRES   REMARKS
BLANDING       CLOUDY    55  32  41 NE5       30.08S
BRYCE CANYON   CLOUDY    39  29  67 CALM      30.10S
CEDAR CITY     PTCLDY    50  28  42 CALM      29.97F
DELTA          PTCLDY    60  27  29 S10       29.90S
HANKSVILLE     CLOUDY    57  27  30 CALM      29.91S
MILFORD        PTCLDY    54  27  35 S8        29.93S
MOAB/CYNLANDS  CLEAR     64  28  25 SE5       29.87S
PRICE          PTCLDY    55  23  28 VRB3      29.95S
ST GEORGE      PTSUNNY   70  28  21 CALM      29.86S
KANAB          PTCLDY    46  34  61 E3        30.01R

$$

REGIONAL REPORTS     COLORADO/ARIZONA

CITY           SKY/WX    TMP DP  RH WIND       PRES   REMARKS
CRAIG, CO      PTCLDY    37  34  89 CALM      30.02S
GRAND JUNCTION PTCLDY    58  38  47 SE6       29.91R
RIFLE          PTCLDY    47  36  65 S6        30.00S
MONTROSE       CLOUDY    57  32  38 SE7       30.01S
CORTEZ         CLEAR     46  34  62 CALM      30.04S
PAGE, AZ       CLOUDY    67  30  25 S6        29.92S
GRAND CANYON   PTCLDY    34  27  75 CALM      30.08F
KINGMAN        CLEAR     62  36  37 SE10      29.89S
FLAGSTAFF      CLOUDY    55  28  35 VRB3      30.11F

$$

REGIONAL REPORTS    NEVADA/IDAHO/WYOMING

CITY           SKY/WX    TMP DP  RH WIND       PRES   REMARKS
LAS VEGAS, NV  CLEAR     75  29  18 S14       29.75S
ELY            PTCLDY    45  20  36 SE5       30.00S
ELKO           CLOUDY    57  35  43 SW6       29.91F
POCATELLO, ID  MOCLDY    49  35  58 S6        29.91R
BURLEY         MOCLDY    51  37  58 SW6       29.85R
EVANSTON, WY   CLOUDY    48  32  53 E5        30.02F
ROCK SPRINGS   CLOUDY    46  37  71 SE3       30.01F
KEMMERER       MOCLDY    48  32  53 S3        30.03S

$$


USA.gov is the U.S. government's official web portal to all federal, state and local government web resources and services.